,,PressureMeas_1m,,PRMeasQMR101_1,,RHStat155_1m_1,,SRMeasQMS101R_1m,,TAStat155_1m_1,,GenWind_1,,GenWind_1,
2019-05-16, 07:00:07,VALID,919.412,VALID,0.0,VALID,99.534,VALID,76.81,VALID,19.449,VALID,80.0,VALID,0.0,
2019-05-16, 07:01:07,VALID,919.429,VALID,0.0,VALID,99.497,VALID,74.308,VALID,19.265,VALID,80.0,VALID,0.0,
2019-05-16, 07:02:07,VALID,919.449,VALID,0.0,VALID,99.426,VALID,74.726,VALID,19.155,VALID,72.0,VALID,0.0,
2019-05-16, 07:03:07,VALID,919.471,VALID,0.0,VALID,99.413,VALID,74.861,VALID,19.175,VALID,72.0,VALID,0.0,
2019-05-16, 07:04:07,VALID,919.507,VALID,0.0,VALID,99.417,VALID,76.042,VALID,19.235,VALID,72.0,VALID,0.0,
2019-05-16, 07:05:07,VALID,919.514,VALID,0.0,VALID,99.433,VALID,78.157,VALID,19.286,VALID,70.0,VALID,0.0,
2019-05-16, 07:06:07,VALID,919.523,VALID,0.0,VALID,99.39,VALID,80.938,VALID,19.283,VALID,60.0,VALID,0.0,
2019-05-16, 07:07:07,VALID,919.55,VALID,0.0,VALID,99.348,VALID,83.969,VALID,19.265,VALID,51.0,VALID,0.0,
2019-05-16, 07:08:07,VALID,919.564,VALID,0.0,VALID,99.31,VALID,87.454,VALID,19.274,VALID,48.0,VALID,0.0,
2019-05-16, 07:09:07,VALID,919.611,VALID,0.0,VALID,99.271,VALID,91.714,VALID,19.264,VALID,70.0,VALID,0.0,
2019-05-16, 07:10:07,VALID,919.634,VALID,0.0,VALID,99.202,VALID,96.452,VALID,19.26,VALID,68.0,VALID,0.0,
2019-05-16, 07:11:07,VALID,919.653,VALID,0.0,VALID,99.179,VALID,99.837,VALID,19.309,VALID,66.0,VALID,0.0,
2019-05-16, 07:12:07,VALID,919.691,VALID,0.0,VALID,99.141,VALID,100.877,VALID,19.332,VALID,94.0,VALID,0.0,
2019-05-16, 07:13:07,VALID,919.694,VALID,0.0,VALID,99.007,VALID,100.625,VALID,19.317,VALID,89.0,VALID,0.0,
2019-05-16, 07:14:07,VALID,919.736,VALID,0.0,VALID,99.001,VALID,100.043,VALID,19.408,VALID,83.0,VALID,0.0,
2019-05-16, 07:15:07,VALID,919.769,VALID,0.0,VALID,98.983,VALID,99.81,VALID,19.477,VALID,101.0,VALID,0.0,
2019-05-16, 07:16:07,VALID,919.775,VALID,0.0,VALID,98.867,VALID,99.881,VALID,19.458,VALID,126.0,VALID,0.0,
2019-05-16, 07:17:07,VALID,919.797,VALID,0.0,VALID,98.773,VALID,99.445,VALID,19.431,VALID,131.0,VALID,0.0,
2019-05-16, 07:18:07,VALID,919.831,VALID,0.0,VALID,98.646,VALID,98.403,VALID,19.376,VALID,124.0,VALID,0.0,
2019-05-16, 07:19:07,VALID,919.822,VALID,0.0,VALID,98.544,VALID,96.166,VALID,19.325,VALID,127.0,VALID,0.0,
2019-05-16, 07:20:07,VALID,919.825,VALID,0.0,VALID,98.496,VALID,94.014,VALID,19.282,VALID,129.0,VALID,0.0,
2019-05-16, 07:21:07,VALID,919.825,VALID,0.0,VALID,98.478,VALID,91.428,VALID,19.257,VALID,126.0,VALID,0.0,
2019-05-16, 07:22:07,VALID,919.828,VALID,0.0,VALID,98.588,VALID,89.318,VALID,19.281,VALID,123.0,VALID,0.0,
2019-05-16, 07:23:07,VALID,919.842,VALID,0.0,VALID,98.568,VALID,88.009,VALID,19.239,VALID,117.0,VALID,0.0,
2019-05-16, 07:24:07,VALID,919.858,VALID,0.0,VALID,98.537,VALID,87.085,VALID,19.184,VALID,118.0,VALID,0.0,
2019-05-16, 07:25:07,VALID,919.847,VALID,0.0,VALID,98.614,VALID,86.558,VALID,19.194,VALID,116.0,VALID,0.0,
2019-05-16, 07:26:07,VALID,919.859,VALID,0.0,VALID,98.673,VALID,86.031,VALID,19.206,VALID,106.0,VALID,0.0,
2019-05-16, 07:27:07,VALID,919.887,VALID,0.0,VALID,98.81,VALID,85.455,VALID,19.265,VALID,93.0,VALID,0.0,
2019-05-16, 07:28:07,VALID,919.902,VALID,0.0,VALID,98.767,VALID,84.981,VALID,19.229,VALID,100.0,VALID,0.0,
2019-05-16, 07:29:07,VALID,919.922,VALID,0.0,VALID,98.821,VALID,84.649,VALID,19.285,VALID,97.0,VALID,0.0,
2019-05-16, 07:30:07,VALID,919.928,VALID,0.0,VALID,98.89,VALID,84.559,VALID,19.384,VALID,104.0,VALID,0.0,
2019-05-16, 07:31:07,VALID,919.945,VALID,0.0,VALID,98.899,VALID,84.674,VALID,19.422,VALID,111.0,VALID,0.0,
2019-05-16, 07:32:07,VALID,919.957,VALID,0.0,VALID,98.85,VALID,84.999,VALID,19.45,VALID,111.0,VALID,0.0,
2019-05-16, 07:33:07,VALID,919.955,VALID,0.0,VALID,98.843,VALID,85.53,VALID,19.521,VALID,113.0,VALID,0.0,
2019-05-16, 07:34:07,VALID,919.961,VALID,0.0,VALID,98.778,VALID,86.177,VALID,19.543,VALID,127.0,VALID,0.0,
2019-05-16, 07:35:07,VALID,919.956,VALID,0.0,VALID,98.528,VALID,86.918,VALID,19.516,VALID,122.0,VALID,0.0,
2019-05-16, 07:36:07,VALID,919.954,VALID,0.0,VALID,98.27,VALID,87.562,VALID,19.533,VALID,117.0,VALID,0.0,
2019-05-16, 07:37:07,VALID,919.971,VALID,0.0,VALID,98.005,VALID,87.949,VALID,19.562,VALID,112.0,VALID,0.0,
2019-05-16, 07:38:07,VALID,920.003,VALID,0.0,VALID,97.86,VALID,88.046,VALID,19.604,VALID,113.0,VALID,0.0,
2019-05-16, 07:39:07,VALID,920.011,VALID,0.0,VALID,97.865,VALID,87.848,VALID,19.663,VALID,111.0,VALID,0.0,
2019-05-16, 07:40:07,VALID,920.034,VALID,0.0,VALID,97.952,VALID,87.51,VALID,19.711,VALID,109.0,VALID,0.0,
2019-05-16, 07:41:07,VALID,920.054,VALID,0.0,VALID,97.891,VALID,87.234,VALID,19.722,VALID,93.0,VALID,0.0,
2019-05-16, 07:42:07,VALID,920.072,VALID,0.0,VALID,97.719,VALID,87.237,VALID,19.736,VALID,102.0,VALID,0.0,
2019-05-16, 07:43:07,VALID,920.081,VALID,0.0,VALID,97.642,VALID,87.527,VALID,19.764,VALID,105.0,VALID,0.0,
2019-05-16, 07:44:07,VALID,920.086,VALID,0.0,VALID,97.496,VALID,87.896,VALID,19.746,VALID,107.0,VALID,0.0,
2019-05-16, 07:45:07,VALID,920.104,VALID,0.0,VALID,97.279,VALID,88.236,VALID,19.733,VALID,108.0,VALID,0.0,
2019-05-16, 07:46:07,VALID,920.127,VALID,0.0,VALID,97.235,VALID,88.414,VALID,19.729,VALID,108.0,VALID,0.0,
2019-05-16, 07:47:07,VALID,920.144,VALID,0.0,VALID,97.079,VALID,88.306,VALID,19.711,VALID,108.0,VALID,0.0,
2019-05-16, 07:48:07,VALID,920.159,VALID,0.0,VALID,96.92,VALID,87.853,VALID,19.715,VALID,101.0,VALID,0.0,
2019-05-16, 07:49:07,VALID,920.204,VALID,0.0,VALID,97.096,VALID,87.036,VALID,19.764,VALID,107.0,VALID,0.0,
2019-05-16, 07:50:07,VALID,920.224,VALID,0.0,VALID,97.029,VALID,86.013,VALID,19.757,VALID,108.0,VALID,0.0,
2019-05-16, 07:51:07,VALID,920.266,VALID,0.0,VALID,96.856,VALID,84.901,VALID,19.736,VALID,101.0,VALID,0.0,
2019-05-16, 07:52:07,VALID,920.31,VALID,0.0,VALID,96.786,VALID,83.805,VALID,19.741,VALID,113.0,VALID,0.0,
2019-05-16, 07:53:07,VALID,920.334,VALID,0.0,VALID,96.986,VALID,82.761,VALID,19.792,VALID,113.0,VALID,0.0,
2019-05-16, 07:54:07,VALID,920.36,VALID,0.0,VALID,97.194,VALID,81.773,VALID,19.813,VALID,102.0,VALID,0.0,
2019-05-16, 07:55:07,VALID,920.394,VALID,0.0,VALID,96.968,VALID,81.012,VALID,19.818,VALID,113.0,VALID,0.0,
2019-05-16, 07:56:07,VALID,920.424,VALID,0.0,VALID,97.127,VALID,80.456,VALID,19.862,VALID,127.0,VALID,0.0,
2019-05-16, 07:57:07,VALID,920.47,VALID,0.0,VALID,97.043,VALID,80.104,VALID,19.873,VALID,125.0,VALID,0.0,
2019-05-16, 07:58:07,VALID,920.477,VALID,0.0,VALID,97.035,VALID,79.917,VALID,19.912,VALID,119.0,VALID,0.0,
2019-05-16, 07:59:07,VALID,920.502,VALID,0.0,VALID,96.895,VALID,79.891,VALID,19.905,VALID,124.0,VALID,0.0,
2019-05-16, 08:00:07,VALID,920.501,VALID,0.0,VALID,96.623,VALID,79.993,VALID,19.918,VALID,130.0,VALID,0.0,
2019-05-16, 08:01:07,VALID,920.515,VALID,0.0,VALID,96.557,VALID,80.116,VALID,19.941,VALID,127.0,VALID,0.0,
2019-05-16, 08:02:07,VALID,920.515,VALID,0.0,VALID,96.502,VALID,80.204,VALID,19.956,VALID,136.0,VALID,0.0,
2019-05-16, 08:03:07,VALID,920.521,VALID,0.0,VALID,96.367,VALID,80.141,VALID,19.964,VALID,144.0,VALID,0.0,
2019-05-16, 08:04:07,VALID,920.516,VALID,0.0,VALID,96.334,VALID,79.845,VALID,19.984,VALID,128.0,VALID,0.0,
2019-05-16, 08:05:07,VALID,920.509,VALID,0.0,VALID,96.122,VALID,79.336,VALID,19.976,VALID,127.0,VALID,0.0,
2019-05-16, 08:06:07,VALID,920.499,VALID,0.0,VALID,96.192,VALID,78.729,VALID,19.997,VALID,128.0,VALID,0.0,
2019-05-16, 08:07:07,VALID,920.492,VALID,0.0,VALID,96.406,VALID,78.08,VALID,20.022,VALID,127.0,VALID,0.0,
2019-05-16, 08:08:07,VALID,920.497,VALID,0.0,VALID,96.544,VALID,77.538,VALID,20.054,VALID,118.0,VALID,0.0,
2019-05-16, 08:09:07,VALID,920.481,VALID,0.0,VALID,96.717,VALID,77.136,VALID,20.089,VALID,110.0,VALID,0.0,
2019-05-16, 08:10:07,VALID,920.493,VALID,0.0,VALID,96.493,VALID,76.965,VALID,20.093,VALID,101.0,VALID,0.0,
2019-05-16, 08:11:07,VALID,920.47,VALID,0.0,VALID,96.424,VALID,77.057,VALID,20.124,VALID,89.0,VALID,0.0,
2019-05-16, 08:12:07,VALID,920.463,VALID,0.0,VALID,96.4,VALID,77.413,VALID,20.161,VALID,85.0,VALID,0.0,
2019-05-16, 08:13:07,VALID,920.474,VALID,0.0,VALID,96.681,VALID,77.937,VALID,20.177,VALID,82.0,VALID,0.0,
2019-05-16, 08:14:07,VALID,920.481,VALID,0.0,VALID,96.628,VALID,78.554,VALID,20.18,VALID,81.0,VALID,0.0,
2019-05-16, 08:15:07,VALID,920.496,VALID,0.0,VALID,96.187,VALID,79.19,VALID,20.161,VALID,84.0,VALID,0.0,
2019-05-16, 08:16:06,VALID,920.509,VALID,0.0,VALID,96.044,VALID,79.88,VALID,20.188,VALID,91.0,VALID,0.0,
2019-05-16, 08:17:06,VALID,920.511,VALID,0.0,VALID,95.853,VALID,80.538,VALID,20.206,VALID,89.0,VALID,0.0,
2019-05-16, 08:18:06,VALID,920.515,VALID,0.0,VALID,96.007,VALID,81.262,VALID,20.245,VALID,88.0,VALID,0.0,
2019-05-16, 08:19:06,VALID,920.518,VALID,0.0,VALID,95.64,VALID,81.979,VALID,20.26,VALID,83.0,VALID,0.0,
2019-05-16, 08:20:06,VALID,920.522,VALID,0.0,VALID,95.922,VALID,82.855,VALID,20.287,VALID,83.0,VALID,0.0,
2019-05-16, 08:21:06,VALID,920.499,VALID,0.0,VALID,95.568,VALID,83.863,VALID,20.274,VALID,98.0,VALID,0.0,
2019-05-16, 08:22:06,VALID,920.495,VALID,0.0,VALID,95.401,VALID,85.016,VALID,20.281,VALID,96.0,VALID,0.0,
2019-05-16, 08:23:06,VALID,920.465,VALID,0.0,VALID,95.336,VALID,86.347,VALID,20.29,VALID,94.0,VALID,0.0,
2019-05-16, 08:24:06,VALID,920.447,VALID,0.0,VALID,94.932,VALID,87.801,VALID,20.283,VALID,98.0,VALID,0.0,
2019-05-16, 08:25:06,VALID,920.442,VALID,0.0,VALID,95.066,VALID,89.32,VALID,20.325,VALID,95.0,VALID,0.0,
2019-05-16, 08:26:06,VALID,920.433,VALID,0.0,VALID,95.303,VALID,90.861,VALID,20.332,VALID,96.0,VALID,0.0,
2019-05-16, 08:27:06,VALID,920.405,VALID,0.0,VALID,95.973,VALID,92.39,VALID,20.408,VALID,105.0,VALID,0.0,
2019-05-16, 08:28:06,VALID,920.41,VALID,0.0,VALID,96.326,VALID,93.84,VALID,20.431,VALID,113.0,VALID,0.0,
2019-05-16, 08:29:06,VALID,920.39,VALID,0.0,VALID,96.291,VALID,95.191,VALID,20.448,VALID,134.0,VALID,0.0,
2019-05-16, 08:30:06,VALID,920.397,VALID,0.0,VALID,95.725,VALID,96.331,VALID,20.403,VALID,122.0,VALID,0.0,
2019-05-16, 08:31:06,VALID,920.388,VALID,0.0,VALID,95.707,VALID,97.376,VALID,20.401,VALID,133.0,VALID,0.0,
2019-05-16, 08:32:06,VALID,920.386,VALID,0.0,VALID,95.648,VALID,98.28,VALID,20.398,VALID,122.0,VALID,0.0,
2019-05-16, 08:33:06,VALID,920.394,VALID,0.0,VALID,95.805,VALID,99.127,VALID,20.385,VALID,121.0,VALID,0.0,
2019-05-16, 08:34:06,VALID,920.397,VALID,0.0,VALID,95.687,VALID,99.94,VALID,20.357,VALID,118.0,VALID,0.0,
2019-05-16, 08:35:06,VALID,920.391,VALID,0.0,VALID,96.031,VALID,100.801,VALID,20.367,VALID,107.0,VALID,0.0,
2019-05-16, 08:36:06,VALID,920.389,VALID,0.0,VALID,96.409,VALID,101.752,VALID,20.405,VALID,98.0,VALID,0.0,
2019-05-16, 08:37:06,VALID,920.373,VALID,0.0,VALID,96.539,VALID,102.831,VALID,20.408,VALID,98.0,VALID,0.0,
2019-05-16, 08:38:06,VALID,920.371,VALID,0.0,VALID,95.71,VALID,104.053,VALID,20.348,VALID,101.0,VALID,0.0,
2019-05-16, 08:39:06,VALID,920.363,VALID,0.0,VALID,95.397,VALID,105.397,VALID,20.364,VALID,101.0,VALID,0.0,
2019-05-16, 08:40:06,VALID,920.37,VALID,0.0,VALID,95.422,VALID,106.817,VALID,20.395,VALID,115.0,VALID,0.0,
2019-05-16, 08:41:06,VALID,920.372,VALID,0.0,VALID,95.075,VALID,108.282,VALID,20.389,VALID,115.0,VALID,0.0,
2019-05-16, 08:42:06,VALID,920.366,VALID,0.0,VALID,95.151,VALID,109.728,VALID,20.425,VALID,112.0,VALID,0.0,
2019-05-16, 08:43:06,VALID,920.371,VALID,0.0,VALID,96.135,VALID,111.03,VALID,20.529,VALID,125.0,VALID,0.0,
2019-05-16, 08:44:06,VALID,920.387,VALID,0.0,VALID,96.504,VALID,112.075,VALID,20.578,VALID,126.0,VALID,0.0,
2019-05-16, 08:45:06,VALID,920.409,VALID,0.0,VALID,95.808,VALID,112.791,VALID,20.531,VALID,120.0,VALID,0.0,
2019-05-16, 08:46:06,VALID,920.421,VALID,0.0,VALID,95.457,VALID,113.232,VALID,20.547,VALID,130.0,VALID,0.0,
2019-05-16, 08:47:06,VALID,920.443,VALID,0.0,VALID,95.312,VALID,113.361,VALID,20.571,VALID,128.0,VALID,0.0,
2019-05-16, 08:48:06,VALID,920.468,VALID,0.0,VALID,95.382,VALID,113.263,VALID,20.579,VALID,127.0,VALID,0.0,
2019-05-16, 08:49:06,VALID,920.487,VALID,0.0,VALID,94.893,VALID,113.066,VALID,20.579,VALID,127.0,VALID,0.0,
2019-05-16, 08:50:06,VALID,920.507,VALID,0.0,VALID,94.681,VALID,112.881,VALID,20.579,VALID,123.0,VALID,0.0,
2019-05-16, 08:51:06,VALID,920.528,VALID,0.0,VALID,94.876,VALID,112.831,VALID,20.608,VALID,119.0,VALID,0.0,
2019-05-16, 08:52:06,VALID,920.546,VALID,0.0,VALID,95.037,VALID,113.022,VALID,20.616,VALID,125.0,VALID,0.0,
2019-05-16, 08:53:06,VALID,920.549,VALID,0.0,VALID,95.202,VALID,113.485,VALID,20.654,VALID,129.0,VALID,0.0,
2019-05-16, 08:54:06,VALID,920.559,VALID,0.0,VALID,95.06,VALID,114.183,VALID,20.676,VALID,126.0,VALID,0.0,
2019-05-16, 08:55:06,VALID,920.547,VALID,0.0,VALID,95.192,VALID,114.981,VALID,20.727,VALID,119.0,VALID,0.0,
2019-05-16, 08:56:06,VALID,920.549,VALID,0.0,VALID,95.355,VALID,115.79,VALID,20.757,VALID,116.0,VALID,0.0,
2019-05-16, 08:57:06,VALID,920.557,VALID,0.0,VALID,95.083,VALID,116.627,VALID,20.791,VALID,115.0,VALID,0.0,
2019-05-16, 08:58:06,VALID,920.571,VALID,0.0,VALID,95.146,VALID,117.452,VALID,20.832,VALID,121.0,VALID,0.0,
2019-05-16, 08:59:06,VALID,920.58,VALID,0.0,VALID,95.265,VALID,118.171,VALID,20.861,VALID,117.0,VALID,0.0,
2019-05-16, 09:00:06,VALID,920.551,VALID,0.0,VALID,94.835,VALID,118.722,VALID,20.865,VALID,108.0,VALID,0.0,
2019-05-16, 09:01:06,VALID,920.565,VALID,0.0,VALID,94.505,VALID,119.207,VALID,20.85,VALID,120.0,VALID,0.0,
2019-05-16, 09:02:06,VALID,920.578,VALID,0.0,VALID,94.226,VALID,119.731,VALID,20.837,VALID,114.0,VALID,0.0,
2019-05-16, 09:03:06,VALID,920.568,VALID,0.0,VALID,94.924,VALID,120.246,VALID,20.854,VALID,97.0,VALID,0.0,
2019-05-16, 09:04:06,VALID,920.561,VALID,0.0,VALID,95.136,VALID,120.715,VALID,20.869,VALID,94.0,VALID,0.0,
2019-05-16, 09:05:06,VALID,920.576,VALID,0.0,VALID,94.827,VALID,121.107,VALID,20.87,VALID,100.0,VALID,0.0,
2019-05-16, 09:06:06,VALID,920.563,VALID,0.0,VALID,94.533,VALID,121.437,VALID,20.89,VALID,80.0,VALID,0.0,
2019-05-16, 09:07:06,VALID,920.547,VALID,0.0,VALID,94.84,VALID,121.828,VALID,20.922,VALID,76.0,VALID,0.0,
2019-05-16, 09:08:06,VALID,920.562,VALID,0.0,VALID,94.847,VALID,122.244,VALID,20.925,VALID,94.0,VALID,0.0,
2019-05-16, 09:09:06,VALID,920.555,VALID,0.0,VALID,93.769,VALID,122.712,VALID,20.866,VALID,99.0,VALID,0.0,
2019-05-16, 09:10:06,VALID,920.544,VALID,0.0,VALID,94.507,VALID,123.437,VALID,20.878,VALID,96.0,VALID,0.0,
2019-05-16, 09:11:06,VALID,920.548,VALID,0.0,VALID,94.667,VALID,124.669,VALID,20.883,VALID,91.0,VALID,0.0,
2019-05-16, 09:12:06,VALID,920.533,VALID,0.0,VALID,95.412,VALID,126.546,VALID,20.922,VALID,91.0,VALID,0.0,
2019-05-16, 09:13:06,VALID,920.517,VALID,0.0,VALID,95.887,VALID,128.765,VALID,20.963,VALID,87.0,VALID,0.0,
2019-05-16, 09:14:06,VALID,920.508,VALID,0.0,VALID,95.585,VALID,131.024,VALID,20.943,VALID,118.0,VALID,0.0,
2019-05-16, 09:15:06,VALID,920.476,VALID,0.0,VALID,94.687,VALID,133.09,VALID,20.902,VALID,107.0,VALID,0.0,
2019-05-16, 09:16:06,VALID,920.455,VALID,0.0,VALID,94.24,VALID,135.193,VALID,20.87,VALID,119.0,VALID,0.0,
2019-05-16, 09:17:06,VALID,920.446,VALID,0.0,VALID,93.649,VALID,137.409,VALID,20.835,VALID,111.0,VALID,0.0,
2019-05-16, 09:18:06,VALID,920.433,VALID,0.0,VALID,93.629,VALID,139.741,VALID,20.839,VALID,107.0,VALID,0.0,
2019-05-16, 09:19:06,VALID,920.402,VALID,0.0,VALID,93.972,VALID,142.049,VALID,20.872,VALID,104.0,VALID,0.0,
2019-05-16, 09:20:06,VALID,920.385,VALID,0.0,VALID,94.186,VALID,144.259,VALID,20.928,VALID,106.0,VALID,0.0,
2019-05-16, 09:21:06,VALID,920.394,VALID,0.0,VALID,94.326,VALID,146.55,VALID,20.988,VALID,111.0,VALID,0.0,
2019-05-16, 09:22:06,VALID,920.374,VALID,0.0,VALID,93.975,VALID,149.025,VALID,21.034,VALID,122.0,VALID,0.0,
2019-05-16, 09:23:06,VALID,920.365,VALID,0.0,VALID,94.018,VALID,151.634,VALID,21.075,VALID,118.0,VALID,0.0,
2019-05-16, 09:24:06,VALID,920.373,VALID,0.0,VALID,94.069,VALID,154.195,VALID,21.089,VALID,117.0,VALID,0.0,
2019-05-16, 09:25:06,VALID,920.363,VALID,0.0,VALID,93.858,VALID,156.74,VALID,21.078,VALID,126.0,VALID,0.0,
2019-05-16, 09:26:06,VALID,920.362,VALID,0.0,VALID,94.192,VALID,159.269,VALID,21.107,VALID,125.0,VALID,0.0,
2019-05-16, 09:27:06,VALID,920.376,VALID,0.0,VALID,93.811,VALID,161.868,VALID,21.087,VALID,120.0,VALID,0.0,
2019-05-16, 09:28:06,VALID,920.362,VALID,0.0,VALID,94.432,VALID,164.515,VALID,21.081,VALID,113.0,VALID,0.0,
2019-05-16, 09:29:06,VALID,920.358,VALID,0.0,VALID,94.282,VALID,167.095,VALID,21.047,VALID,123.0,VALID,0.0,
2019-05-16, 09:30:06,VALID,920.354,VALID,0.0,VALID,94.594,VALID,169.489,VALID,21.044,VALID,121.0,VALID,0.0,
2019-05-16, 09:31:06,VALID,920.373,VALID,0.0,VALID,94.77,VALID,171.922,VALID,21.04,VALID,120.0,VALID,0.0,
2019-05-16, 09:32:06,VALID,920.373,VALID,0.0,VALID,94.746,VALID,174.513,VALID,21.038,VALID,120.0,VALID,0.0,
2019-05-16, 09:33:06,VALID,920.358,VALID,0.0,VALID,95.033,VALID,177.367,VALID,21.055,VALID,114.0,VALID,0.0,
2019-05-16, 09:34:06,VALID,920.346,VALID,0.0,VALID,94.668,VALID,180.386,VALID,21.028,VALID,117.0,VALID,0.0,
2019-05-16, 09:35:06,VALID,920.346,VALID,0.0,VALID,94.706,VALID,183.336,VALID,21.036,VALID,118.0,VALID,0.0,
2019-05-16, 09:36:06,VALID,920.361,VALID,0.0,VALID,94.593,VALID,186.078,VALID,21.029,VALID,121.0,VALID,0.0,
2019-05-16, 09:37:06,VALID,920.358,VALID,0.0,VALID,94.622,VALID,188.415,VALID,21.023,VALID,119.0,VALID,0.0,
2019-05-16, 09:38:06,VALID,920.356,VALID,0.0,VALID,94.872,VALID,190.356,VALID,21.048,VALID,119.0,VALID,0.0,
2019-05-16, 09:39:06,VALID,920.36,VALID,0.0,VALID,94.875,VALID,191.827,VALID,21.052,VALID,123.0,VALID,0.0,
2019-05-16, 09:40:06,VALID,920.357,VALID,0.0,VALID,94.636,VALID,192.895,VALID,21.047,VALID,122.0,VALID,0.0,
2019-05-16, 09:41:06,VALID,920.364,VALID,0.0,VALID,94.623,VALID,193.634,VALID,21.042,VALID,119.0,VALID,0.0,
2019-05-16, 09:42:06,VALID,920.37,VALID,0.0,VALID,95.023,VALID,194.275,VALID,21.048,VALID,121.0,VALID,0.0,
2019-05-16, 09:43:06,VALID,920.371,VALID,0.0,VALID,94.857,VALID,194.88,VALID,21.068,VALID,125.0,VALID,0.0,
2019-05-16, 09:44:06,VALID,920.358,VALID,0.0,VALID,94.423,VALID,195.467,VALID,21.117,VALID,123.0,VALID,0.0,
2019-05-16, 09:45:06,VALID,920.371,VALID,0.0,VALID,95.502,VALID,196.033,VALID,21.21,VALID,130.0,VALID,0.0,
2019-05-16, 09:46:06,VALID,920.374,VALID,0.0,VALID,94.676,VALID,196.643,VALID,21.239,VALID,135.0,VALID,0.0,
2019-05-16, 09:47:06,VALID,920.381,VALID,0.0,VALID,93.501,VALID,197.334,VALID,21.298,VALID,131.0,VALID,0.0,
2019-05-16, 09:48:06,VALID,920.375,VALID,0.0,VALID,93.612,VALID,198.284,VALID,21.363,VALID,130.0,VALID,0.0,
2019-05-16, 09:49:06,VALID,920.38,VALID,0.0,VALID,93.514,VALID,199.55,VALID,21.399,VALID,134.0,VALID,0.0,
2019-05-16, 09:50:06,VALID,920.374,VALID,0.0,VALID,93.587,VALID,201.288,VALID,21.444,VALID,125.0,VALID,0.0,
2019-05-16, 09:51:06,VALID,920.375,VALID,0.0,VALID,93.544,VALID,203.617,VALID,21.471,VALID,133.0,VALID,0.0,
2019-05-16, 09:52:06,VALID,920.343,VALID,0.0,VALID,93.328,VALID,206.376,VALID,21.513,VALID,130.0,VALID,0.0,
2019-05-16, 09:53:06,VALID,920.346,VALID,0.0,VALID,93.188,VALID,209.231,VALID,21.551,VALID,132.0,VALID,0.0,
2019-05-16, 09:54:06,VALID,920.324,VALID,0.0,VALID,93.702,VALID,211.914,VALID,21.629,VALID,161.0,VALID,0.0,
2019-05-16, 09:55:06,VALID,920.318,VALID,0.0,VALID,93.341,VALID,214.286,VALID,21.691,VALID,125.0,VALID,0.0,
2019-05-16, 09:56:06,VALID,920.297,VALID,0.0,VALID,92.946,VALID,216.38,VALID,21.726,VALID,123.0,VALID,0.0,
2019-05-16, 09:57:06,VALID,920.269,VALID,0.0,VALID,92.747,VALID,218.334,VALID,21.749,VALID,124.0,VALID,0.0,
2019-05-16, 09:58:06,VALID,920.239,VALID,0.0,VALID,91.695,VALID,220.088,VALID,21.717,VALID,124.0,VALID,0.0,
2019-05-16, 09:59:06,VALID,920.245,VALID,0.0,VALID,91.463,VALID,221.865,VALID,21.743,VALID,126.0,VALID,0.0,
2019-05-16, 10:00:06,VALID,920.249,VALID,0.0,VALID,91.608,VALID,223.716,VALID,21.784,VALID,122.0,VALID,0.0,
2019-05-16, 10:01:06,VALID,920.239,VALID,0.0,VALID,90.969,VALID,226.079,VALID,21.765,VALID,127.0,VALID,0.0,
2019-05-16, 10:02:06,VALID,920.231,VALID,0.0,VALID,90.771,VALID,228.911,VALID,21.791,VALID,131.0,VALID,0.0,
2019-05-16, 10:03:06,VALID,920.226,VALID,0.0,VALID,91.568,VALID,232.154,VALID,21.909,VALID,145.0,VALID,0.0,
2019-05-16, 10:04:06,VALID,920.217,VALID,0.0,VALID,90.829,VALID,235.463,VALID,21.977,VALID,143.0,VALID,0.0,
2019-05-16, 10:05:06,VALID,920.218,VALID,0.0,VALID,90.649,VALID,239.011,VALID,22.061,VALID,144.0,VALID,0.0,
2019-05-16, 10:06:06,VALID,920.209,VALID,0.0,VALID,89.587,VALID,242.786,VALID,22.15,VALID,137.0,VALID,0.0,
2019-05-16, 10:07:06,VALID,920.197,VALID,0.0,VALID,88.988,VALID,246.919,VALID,22.254,VALID,150.0,VALID,0.0,
2019-05-16, 10:08:06,VALID,920.184,VALID,0.0,VALID,88.345,VALID,250.852,VALID,22.315,VALID,155.0,VALID,0.0,
2019-05-16, 10:09:06,VALID,920.181,VALID,0.0,VALID,88.306,VALID,254.195,VALID,22.362,VALID,85.0,VALID,0.0,
2019-05-16, 10:10:06,VALID,920.183,VALID,0.0,VALID,88.446,VALID,257.686,VALID,22.397,VALID,141.0,VALID,0.0,
2019-05-16, 10:11:06,VALID,920.172,VALID,0.0,VALID,88.21,VALID,261.129,VALID,22.446,VALID,141.0,VALID,0.0,
2019-05-16, 10:12:06,VALID,920.164,VALID,0.0,VALID,88.103,VALID,264.645,VALID,22.48,VALID,131.0,VALID,0.0,
2019-05-16, 10:13:06,VALID,920.153,VALID,0.0,VALID,87.935,VALID,268.146,VALID,22.479,VALID,117.0,VALID,0.0,
2019-05-16, 10:14:06,VALID,920.14,VALID,0.0,VALID,88.161,VALID,271.733,VALID,22.479,VALID,128.0,VALID,0.0,
2019-05-16, 10:15:06,VALID,920.119,VALID,0.0,VALID,88.533,VALID,275.163,VALID,22.465,VALID,124.0,VALID,0.0,
2019-05-16, 10:16:06,VALID,920.103,VALID,0.0,VALID,89.006,VALID,278.326,VALID,22.458,VALID,128.0,VALID,0.0,
2019-05-16, 10:17:06,VALID,920.088,VALID,0.0,VALID,89.685,VALID,280.83,VALID,22.578,VALID,123.0,VALID,0.0,
2019-05-16, 10:18:06,VALID,920.079,VALID,0.0,VALID,89.255,VALID,282.805,VALID,22.662,VALID,121.0,VALID,0.0,
2019-05-16, 10:19:06,VALID,920.08,VALID,0.0,VALID,88.962,VALID,284.67,VALID,22.705,VALID,151.0,VALID,0.0,
2019-05-16, 10:20:06,VALID,920.078,VALID,0.0,VALID,88.401,VALID,286.873,VALID,22.745,VALID,111.0,VALID,0.0,
2019-05-16, 10:21:06,VALID,920.061,VALID,0.0,VALID,88.167,VALID,289.776,VALID,22.764,VALID,112.0,VALID,0.0,
2019-05-16, 10:22:06,VALID,920.053,VALID,0.0,VALID,88.841,VALID,293.751,VALID,22.809,VALID,138.0,VALID,0.0,
2019-05-16, 10:23:06,VALID,920.049,VALID,0.0,VALID,88.292,VALID,298.942,VALID,22.876,VALID,127.0,VALID,0.0,
2019-05-16, 10:24:06,VALID,920.029,VALID,0.0,VALID,87.95,VALID,305.322,VALID,22.914,VALID,136.0,VALID,0.0,
2019-05-16, 10:25:06,VALID,919.995,VALID,0.0,VALID,88.005,VALID,312.479,VALID,22.984,VALID,120.0,VALID,0.0,
2019-05-16, 10:26:06,VALID,919.987,VALID,0.0,VALID,88.035,VALID,319.96,VALID,23.041,VALID,140.0,VALID,0.0,
2019-05-16, 10:27:06,VALID,919.986,VALID,0.0,VALID,88.175,VALID,327.583,VALID,23.116,VALID,157.0,VALID,0.0,
2019-05-16, 10:28:06,VALID,919.986,VALID,0.0,VALID,86.906,VALID,333.732,VALID,23.093,VALID,163.0,VALID,0.0,
2019-05-16, 10:29:06,VALID,919.98,VALID,0.0,VALID,87.365,VALID,339.188,VALID,23.04,VALID,159.0,VALID,0.0,
2019-05-16, 10:30:06,VALID,919.983,VALID,0.0,VALID,85.164,VALID,344.685,VALID,23.017,VALID,139.0,VALID,0.0,
2019-05-16, 10:31:06,VALID,919.968,VALID,0.0,VALID,86.44,VALID,351.023,VALID,23.01,VALID,118.0,VALID,0.0,
2019-05-16, 10:32:06,VALID,919.947,VALID,0.0,VALID,88.148,VALID,358.562,VALID,23.133,VALID,114.0,VALID,0.0,
2019-05-16, 10:33:06,VALID,919.947,VALID,0.0,VALID,86.474,VALID,367.621,VALID,23.285,VALID,136.0,VALID,0.0,
2019-05-16, 10:34:06,VALID,919.915,VALID,0.0,VALID,85.101,VALID,377.87,VALID,23.392,VALID,163.0,VALID,0.0,
2019-05-16, 10:35:06,VALID,919.912,VALID,0.0,VALID,85.215,VALID,389.557,VALID,23.474,VALID,129.0,VALID,0.0,
2019-05-16, 10:36:06,VALID,919.881,VALID,0.0,VALID,84.164,VALID,402.002,VALID,23.495,VALID,119.0,VALID,0.0,
2019-05-16, 10:37:06,VALID,919.853,VALID,0.0,VALID,85.031,VALID,416.523,VALID,23.31,VALID,128.0,VALID,0.0,
2019-05-16, 10:38:06,VALID,919.828,VALID,0.0,VALID,86.388,VALID,433.162,VALID,23.314,VALID,127.0,VALID,0.0,
2019-05-16, 10:39:06,VALID,919.803,VALID,0.0,VALID,85.015,VALID,449.291,VALID,23.478,VALID,120.0,VALID,0.0,
2019-05-16, 10:40:06,VALID,919.789,VALID,0.0,VALID,84.315,VALID,471.043,VALID,23.577,VALID,121.0,VALID,0.0,